UAL2647 KSFO-KLAX

Flight info

Callsign UAL2647
Flight time N/A
Altitude 35000
Route WESLA5 SUSEY EBAYE BURGL IRNMN2
Aircraft A320/M-SDE3FGHIRWY/LB1

Departure

Time 2026-04-30 21:37
Airport San Francisco International Airport (KSFO)

Arrival

Time N/A
Airport Los Angeles International Airport (KLAX)
Time Latitude Longitude Altitude Speed Heading
2026-04-30 21:09 37.61678 -122.38059 21 ft 0 kts 297°
2026-04-30 21:23 37.61666 -122.38033 22 ft 4 kts 303°
2026-04-30 21:23 37.61650 -122.38007 22 ft 4 kts 319°
2026-04-30 21:23 37.61616 -122.37995 22 ft 1 kts 28°
2026-04-30 21:24 37.61615 -122.37996 20 ft 0 kts 28°
2026-04-30 21:28 37.61636 -122.37982 20 ft 4 kts 28°
2026-04-30 21:28 37.61667 -122.37961 20 ft 6 kts 29°
2026-04-30 21:28 37.61734 -122.37900 20 ft 1 kts 41°
2026-04-30 21:29 37.61744 -122.37888 22 ft 3 kts 43°
2026-04-30 21:29 37.61795 -122.37755 23 ft 5 kts 110°
2026-04-30 21:30 37.61780 -122.37709 21 ft 6 kts 112°
2026-04-30 21:31 37.61707 -122.37485 20 ft 13 kts 117°
2026-04-30 21:31 37.61613 -122.37260 20 ft 16 kts 118°
2026-04-30 21:32 37.61495 -122.36979 21 ft 20 kts 119°
2026-04-30 21:32 37.61405 -122.36837 20 ft 22 kts 131°
2026-04-30 21:32 37.61320 -122.36672 20 ft 23 kts 118°
2026-04-30 21:32 37.61240 -122.36483 20 ft 25 kts 117°
2026-04-30 21:33 37.61156 -122.36281 22 ft 27 kts 118°
2026-04-30 21:33 37.61064 -122.35942 22 ft 15 kts 60°
2026-04-30 21:33 37.61149 -122.35870 20 ft 10 kts 25°
2026-04-30 21:34 37.61204 -122.35913 21 ft 12 kts 294°
2026-04-30 21:34 37.61225 -122.35965 21 ft 0 kts 297°
2026-04-30 21:35 37.61225 -122.35966 21 ft 1 kts 297°
2026-04-30 21:35 37.61264 -122.36060 22 ft 41 kts 297°
2026-04-30 21:35 37.61501 -122.36624 21 ft 102 kts 297°
2026-04-30 21:36 37.61912 -122.37605 26 ft 149 kts 298°
2026-04-30 21:36 37.62246 -122.38404 234 ft 159 kts 297°
2026-04-30 21:37 37.63880 -122.42241 2042 ft 177 kts 299°
2026-04-30 21:37 37.64515 -122.43681 2327 ft 199 kts 299°
2026-04-30 21:37 37.65229 -122.45296 2591 ft 224 kts 299°
2026-04-30 21:37 37.66020 -122.47086 3141 ft 240 kts 301°
2026-04-30 21:38 37.66795 -122.48991 3847 ft 253 kts 289°
2026-04-30 21:38 37.66827 -122.51261 4445 ft 270 kts 252°
2026-04-30 21:38 37.65768 -122.53214 5271 ft 276 kts 217°
2026-04-30 21:38 37.64002 -122.54112 6131 ft 279 kts 183°
2026-04-30 21:39 37.62101 -122.53707 7020 ft 281 kts 158°
2026-04-30 21:39 37.60315 -122.52680 7860 ft 284 kts 153°
2026-04-30 21:39 37.58518 -122.51599 8669 ft 288 kts 153°
2026-04-30 21:39 37.56690 -122.50496 9443 ft 294 kts 153°
2026-04-30 21:40 37.54832 -122.49378 10196 ft 300 kts 155°
2026-04-30 21:40 37.52808 -122.48417 10479 ft 323 kts 162°
2026-04-30 21:40 37.50601 -122.47545 10764 ft 341 kts 158°
2026-04-30 21:40 37.48441 -122.46222 11342 ft 347 kts 146°
2026-04-30 21:41 37.46587 -122.44264 12002 ft 351 kts 133°
2026-04-30 21:41 37.44905 -122.42017 12675 ft 355 kts 131°
2026-04-30 21:41 37.43224 -122.39714 13333 ft 360 kts 131°
2026-04-30 21:41 37.41527 -122.37372 13946 ft 364 kts 131°
2026-04-30 21:42 37.39809 -122.35002 14531 ft 369 kts 131°
2026-04-30 21:42 37.38065 -122.32613 15112 ft 373 kts 131°
2026-04-30 21:42 37.36299 -122.30209 15697 ft 376 kts 131°
2026-04-30 21:42 37.34510 -122.27779 16272 ft 380 kts 131°
2026-04-30 21:43 37.32704 -122.25330 16857 ft 384 kts 131°
2026-04-30 21:43 37.30877 -122.22855 17445 ft 388 kts 131°
2026-04-30 21:43 37.29032 -122.20359 18022 ft 392 kts 131°
2026-04-30 21:43 37.27168 -122.17835 18565 ft 396 kts 131°
2026-04-30 21:44 37.25284 -122.15286 19107 ft 400 kts 131°
2026-04-30 21:44 37.23385 -122.12717 19640 ft 404 kts 132°
2026-04-30 21:44 37.21462 -122.10119 20178 ft 408 kts 132°
2026-04-30 21:44 37.19521 -122.07502 20701 ft 412 kts 132°
2026-04-30 21:45 37.17557 -122.04861 21228 ft 416 kts 132°
2026-04-30 21:45 37.15575 -122.02200 21723 ft 420 kts 132°
2026-04-30 21:45 37.13571 -121.99509 22213 ft 424 kts 132°
2026-04-30 21:45 37.11553 -121.96798 22725 ft 427 kts 132°
2026-04-30 21:46 37.09514 -121.94062 23214 ft 431 kts 132°
2026-04-30 21:46 37.07459 -121.91305 23684 ft 435 kts 133°
2026-04-30 21:46 37.05389 -121.88530 24090 ft 438 kts 133°
2026-04-30 21:46 37.03299 -121.85732 24515 ft 441 kts 133°
2026-04-30 21:47 37.01199 -121.82922 24906 ft 445 kts 133°
2026-04-30 21:47 36.99076 -121.80086 25293 ft 447 kts 133°
2026-04-30 21:47 36.96938 -121.77233 25674 ft 451 kts 133°
2026-04-30 21:47 36.94786 -121.74363 26052 ft 454 kts 133°
2026-04-30 21:48 36.92624 -121.71482 26424 ft 457 kts 133°
2026-04-30 21:48 36.90443 -121.68578 26786 ft 459 kts 133°
2026-04-30 21:48 36.88246 -121.65657 27141 ft 462 kts 133°
2026-04-30 21:48 36.86066 -121.62760 27494 ft 465 kts 133°
2026-04-30 21:49 36.83846 -121.59811 27819 ft 468 kts 133°
2026-04-30 21:49 36.81609 -121.56839 28168 ft 471 kts 133°
2026-04-30 21:49 36.79362 -121.53857 28534 ft 474 kts 134°
2026-04-30 21:49 36.77094 -121.50850 28905 ft 477 kts 134°
2026-04-30 21:50 36.74818 -121.47834 29251 ft 479 kts 134°
2026-04-30 21:50 36.72527 -121.44803 29598 ft 482 kts 134°
2026-04-30 21:50 36.70219 -121.41756 29911 ft 485 kts 134°
2026-04-30 21:50 36.67891 -121.38694 30211 ft 487 kts 134°
2026-04-30 21:51 36.65558 -121.35626 30486 ft 490 kts 134°
2026-04-30 21:51 36.63205 -121.32527 30757 ft 492 kts 134°
2026-04-30 21:51 36.60856 -121.29432 31145 ft 492 kts 134°
2026-04-30 21:51 36.58508 -121.26339 31507 ft 492 kts 134°
2026-04-30 21:52 36.56155 -121.23246 31898 ft 492 kts 134°
2026-04-30 21:52 36.53803 -121.20161 32273 ft 492 kts 134°
2026-04-30 21:52 36.51452 -121.17076 32649 ft 492 kts 134°
2026-04-30 21:52 36.49098 -121.13988 33019 ft 492 kts 134°
2026-04-30 21:53 36.46739 -121.10901 33415 ft 492 kts 134°
2026-04-30 21:53 36.44380 -121.07821 33803 ft 492 kts 134°
2026-04-30 21:53 36.42033 -121.04726 34153 ft 493 kts 133°
2026-04-30 21:53 36.39747 -121.01559 34498 ft 492 kts 131°
2026-04-30 21:54 36.37518 -120.98338 34835 ft 492 kts 130°
2026-04-30 21:54 36.35317 -120.95088 34989 ft 492 kts 130°
2026-04-30 21:54 36.30920 -120.88607 35000 ft 490 kts 131°
2026-04-30 21:55 36.26472 -120.82203 34993 ft 490 kts 131°
2026-04-30 21:55 36.22000 -120.75837 34991 ft 490 kts 131°
2026-04-30 21:56 36.17525 -120.69479 34988 ft 490 kts 131°
2026-04-30 21:56 36.13059 -120.63120 34991 ft 490 kts 131°
2026-04-30 21:57 36.08588 -120.56762 34981 ft 490 kts 131°
2026-04-30 21:57 36.04117 -120.50414 34991 ft 489 kts 131°
2026-04-30 21:58 35.99643 -120.44074 34995 ft 489 kts 131°
2026-04-30 21:58 35.95165 -120.37745 35008 ft 489 kts 131°
2026-04-30 21:59 35.90680 -120.31433 34996 ft 489 kts 131°
2026-04-30 22:00 35.83092 -120.23197 34996 ft 485 kts 150°
2026-04-30 22:00 35.74459 -120.16704 34978 ft 485 kts 150°
2026-04-30 22:01 35.68702 -120.12362 34979 ft 485 kts 150°
2026-04-30 22:01 35.62991 -120.08056 34994 ft 485 kts 150°
2026-04-30 22:02 35.57246 -120.03715 34983 ft 485 kts 149°
2026-04-30 22:02 35.51500 -119.99384 34985 ft 484 kts 149°
2026-04-30 22:03 35.45720 -119.95032 34983 ft 484 kts 150°
2026-04-30 22:03 35.40000 -119.90782 34964 ft 484 kts 153°
2026-04-30 22:04 35.33979 -119.87122 34957 ft 483 kts 158°
2026-04-30 22:05 35.24483 -119.83131 34955 ft 481 kts 167°
2026-04-30 22:05 35.18054 -119.80925 34636 ft 479 kts 167°
2026-04-30 22:05 35.14846 -119.79835 34399 ft 478 kts 167°
2026-04-30 22:06 35.11645 -119.78752 34170 ft 477 kts 167°
2026-04-30 22:06 35.05279 -119.76604 33667 ft 472 kts 167°
2026-04-30 22:06 35.02137 -119.75547 33305 ft 465 kts 167°
2026-04-30 22:07 34.99038 -119.74506 32902 ft 459 kts 167°
2026-04-30 22:07 34.95980 -119.73483 32508 ft 452 kts 167°
2026-04-30 22:07 34.92954 -119.72473 32128 ft 449 kts 167°
2026-04-30 22:07 34.89958 -119.71474 31917 ft 445 kts 167°
2026-04-30 22:08 34.83985 -119.69486 31954 ft 445 kts 167°
2026-04-30 22:08 34.78012 -119.67501 31946 ft 445 kts 167°
2026-04-30 22:09 34.72214 -119.64897 31673 ft 450 kts 147°
2026-04-30 22:09 34.69804 -119.62412 30522 ft 459 kts 128°
2026-04-30 22:09 34.68179 -119.59137 29739 ft 446 kts 109°
2026-04-30 22:10 34.67186 -119.55626 28994 ft 437 kts 105°
2026-04-30 22:10 34.66229 -119.52109 28293 ft 440 kts 105°
2026-04-30 22:10 34.65251 -119.48576 27579 ft 442 kts 106°
2026-04-30 22:10 34.64263 -119.45032 26860 ft 441 kts 106°
2026-04-30 22:11 34.62330 -119.38136 25538 ft 421 kts 106°
2026-04-30 22:11 34.61409 -119.34824 25091 ft 409 kts 106°
2026-04-30 22:11 34.60517 -119.31586 24648 ft 401 kts 105°
2026-04-30 22:12 34.59638 -119.28386 24213 ft 397 kts 105°
2026-04-30 22:12 34.58760 -119.25206 23721 ft 400 kts 106°
2026-04-30 22:12 34.57864 -119.21980 22776 ft 404 kts 107°
2026-04-30 22:12 34.56730 -119.18857 21831 ft 405 kts 118°
2026-04-30 22:13 34.55114 -119.16119 21329 ft 393 kts 130°
2026-04-30 22:13 34.53172 -119.13872 20895 ft 380 kts 141°
2026-04-30 22:13 34.51054 -119.11967 20463 ft 379 kts 143°
2026-04-30 22:13 34.48958 -119.10104 20022 ft 378 kts 142°
2026-04-30 22:14 34.46841 -119.08229 19592 ft 376 kts 142°
2026-04-30 22:14 34.44725 -119.06356 19151 ft 376 kts 142°
2026-04-30 22:14 34.42608 -119.04496 18702 ft 376 kts 142°
2026-04-30 22:14 34.40486 -119.02654 18273 ft 375 kts 142°
2026-04-30 22:15 34.38362 -119.00820 17751 ft 374 kts 142°
2026-04-30 22:15 34.36258 -118.99010 17383 ft 369 kts 143°
2026-04-30 22:15 34.34175 -118.97220 16946 ft 366 kts 142°
2026-04-30 22:15 34.32123 -118.95418 16511 ft 363 kts 142°
2026-04-30 22:16 34.30105 -118.93591 16045 ft 361 kts 141°
2026-04-30 22:16 34.28108 -118.91760 15606 ft 360 kts 141°
2026-04-30 22:17 34.22185 -118.86311 14484 ft 348 kts 141°
2026-04-30 22:17 34.20290 -118.84569 14354 ft 337 kts 141°
2026-04-30 22:17 34.16625 -118.81191 13791 ft 329 kts 140°
2026-04-30 22:18 34.14863 -118.79438 13462 ft 326 kts 137°
2026-04-30 22:18 34.11533 -118.75804 12733 ft 319 kts 135°
2026-04-30 22:19 34.08301 -118.72212 11906 ft 313 kts 136°
2026-04-30 22:19 34.06697 -118.70449 11583 ft 309 kts 136°
2026-04-30 22:19 34.03808 -118.66842 11039 ft 293 kts 119°
2026-04-30 22:20 34.02951 -118.64658 10709 ft 285 kts 104°
2026-04-30 22:20 34.02367 -118.60003 10074 ft 280 kts 94°
2026-04-30 22:20 34.02222 -118.58460 9863 ft 279 kts 94°
2026-04-30 22:21 34.01929 -118.55366 9442 ft 276 kts 95°
2026-04-30 22:21 34.01782 -118.53843 9219 ft 275 kts 93°
2026-04-30 22:21 34.01560 -118.51519 8731 ft 279 kts 94°
2026-04-30 22:21 34.01337 -118.49135 7975 ft 291 kts 94°
2026-04-30 22:22 34.01113 -118.46738 7602 ft 279 kts 93°
2026-04-30 22:22 34.01218 -118.44510 7334 ft 259 kts 76°
2026-04-30 22:22 34.01581 -118.42441 7090 ft 246 kts 75°
2026-04-30 22:22 34.01920 -118.40476 6847 ft 234 kts 75°
2026-04-30 22:23 34.02244 -118.38590 6564 ft 226 kts 75°
2026-04-30 22:23 34.02564 -118.36738 6291 ft 228 kts 75°
2026-04-30 22:23 34.02858 -118.34858 5986 ft 229 kts 78°
2026-04-30 22:23 34.03071 -118.32986 5691 ft 229 kts 81°
2026-04-30 22:24 34.03263 -118.31080 5402 ft 229 kts 81°
2026-04-30 22:24 34.03454 -118.29179 5108 ft 229 kts 82°
2026-04-30 22:24 34.03651 -118.27276 4816 ft 229 kts 81°
2026-04-30 22:24 34.03852 -118.25374 4488 ft 229 kts 81°
2026-04-30 22:25 34.04058 -118.23462 4139 ft 230 kts 82°
2026-04-30 22:25 34.04267 -118.21541 3793 ft 232 kts 82°
2026-04-30 22:25 34.04475 -118.19629 3605 ft 227 kts 81°
2026-04-30 22:25 34.04681 -118.17752 3589 ft 226 kts 81°
2026-04-30 22:26 34.05101 -118.13997 3596 ft 226 kts 81°
2026-04-30 22:26 34.05308 -118.12122 3590 ft 226 kts 80°
2026-04-30 22:26 34.05515 -118.10247 3589 ft 226 kts 81°
2026-04-30 22:27 34.05722 -118.08372 3590 ft 226 kts 79°
2026-04-30 22:27 34.05929 -118.06494 3590 ft 227 kts 81°
2026-04-30 22:27 34.06303 -118.03087 3591 ft 234 kts 82°